GFSSE_500_spd_216.txt.gz
Wind_Speed
10 10 10 11 12 12 13 12 12 12 12 13 13 15 15 12 9 7 7 8 8 7 6 5 4 4 4 5 7 7 8 8 9 10 11 12 12 12 12 13 14 15 17
13 13 13 14 14 15 17 17 16 16 14 16 16 15 11 12 11 10 11 11 10 10 9 9 9 8 7 7 8 9 9 10 10 11 12 13 13 13 14 15 16 17 18
9 10 12 10 11 12 12 12 12 13 13 13 11 10 12 11 12 12 11 11 11 11 11 11 11 11 11 11 11 11 11 12 12 13 13 16 15 16 17 18 18 19 19
11 13 12 13 14 14 14 14 14 13 12 13 12 14 14 13 13 13 13 14 14 13 13 12 13 13 13 13 13 13 13 13 15 16 16 16 18 19 20 20 21 22 22
15 14 15 16 17 17 17 17 17 17 17 17 17 17 17 17 16 16 16 17 17 16 16 16 16 15 15 15 16 15 16 17 17 18 19 19 21 21 24 24 25 25 25
19 19 19 20 21 21 21 21 21 21 21 22 21 20 21 21 21 19 20 19 20 21 21 20 19 19 19 19 19 20 19 21 22 21 22 22 22 24 25 27 27 27 28
22 17 22 21 22 22 23 22 23 23 23 23 23 23 23 24 24 24 24 24 24 25 25 25 24 23 23 22 22 23 23 23 24 25 23 23 25 25 26 28 29 29 27
21 25 22 24 25 26 26 26 26 27 26 26 25 25 25 25 26 26 26 27 26 27 28 29 28 28 27 26 26 26 26 27 26 26 24 25 26 26 28 29 29 29 29
27 28 25 26 29 28 30 29 29 29 30 29 29 30 30 28 28 28 28 28 28 29 29 31 30 31 31 30 29 29 29 30 29 29 25 27 28 30 29 30 30 28 29
27 30 30 29 29 30 31 31 31 32 33 33 34 34 34 34 33 33 32 31 31 30 31 32 32 33 33 33 33 32 31 32 31 30 28 27 27 28 26 27 28 27 28
26 31 32 32 33 34 34 36 37 36 36 36 35 36 36 36 36 35 33 33 33 34 34 33 34 35 34 34 34 34 34 33 32 31 26 28 28 27 25 27 27 27 27
34 34 35 37 38 39 40 41 41 41 41 40 40 40 40 38 38 38 38 39 38 39 39 39 38 37 36 37 36 35 35 35 33 31 27 30 29 27 26 25 27 28 27
40 41 41 43 45 46 47 46 47 47 47 47 46 45 45 44 45 44 43 40 44 40 43 46 41 37 39 38 38 37 35 35 33 33 30 31 30 28 25 26 26 28 25
41 43 45 46 48 49 51 51 52 53 53 53 54 54 53 50 49 48 46 43 44 44 40 46 49 32 35 36 37 36 35 34 35 34 31 31 32 27 23 25 26 25 25
44 45 47 50 52 54 56 57 57 57 57 57 57 57 57 55 53 52 51 46 46 46 49 44 22 37 38 39 35 36 35 35 36 34 32 31 33 29 25 27 28 29 31
54 55 58 59 59 59 60 60 60 61 63 63 62 61 60 58 56 55 53 52 49 49 51 50 50 47 42 43 41 40 37 37 38 36 35 32 33 32 31 31 30 29 31
61 63 66 66 65 65 66 66 67 69 68 68 70 70 69 66 64 62 60 57 55 53 53 53 51 50 48 45 43 41 40 38 38 42 38 35 34 35 33 34 35 33 33
73 76 78 77 78 78 77 76 73 72 74 75 75 76 76 76 72 70 68 65 61 60 58 57 55 53 51 50 45 45 42 38 38 41 40 39 37 37 35 34 36 35 30
79 81 84 85 88 87 88 86 83 82 77 78 81 81 82 81 80 79 76 73 70 67 65 64 60 57 54 52 48 47 45 41 40 40 43 41 39 39 38 34 29 25 20
88 90 90 92 93 95 95 91 89 86 83 81 84 86 86 85 85 85 86 82 77 75 71 69 68 63 57 55 51 48 48 46 40 39 42 42 37 38 41 38 35 30 30
92 99 99 95 95 94 91 87 84 84 79 80 85 88 88 87 85 86 83 82 82 78 78 76 72 69 64 57 55 53 51 47 42 42 41 41 36 42 40 38 38 34 30
95 95 97 95 89 89 89 86 82 78 76 77 80 86 90 90 88 85 82 83 83 81 80 79 76 73 70 65 60 57 55 49 46 43 44 46 45 39 37 40 42 36 32
86 83 84 84 78 77 73 69 66 66 66 67 68 73 79 83 84 84 83 82 80 80 79 78 78 76 72 67 64 61 57 54 50 47 48 49 50 50 55 45 41 39 35
72 71 71 68 65 63 62 61 60 59 57 58 60 62 66 72 75 77 79 78 78 79 77 74 72 70 70 66 64 63 59 55 52 51 54 54 52 50 43 44 39 43 38
69 65 63 62 59 55 53 51 51 51 51 52 53 55 58 60 63 67 71 71 68 71 73 73 69 67 67 61 59 59 57 52 45 58 63 60 56 52 52 48 41 39 36
56 51 49 48 46 43 45 44 44 42 42 44 47 50 51 53 56 58 59 62 66 66 62 63 66 62 66 66 63 57 55 51 51 33 52 54 48 50 50 47 48 50 42

GFSSE_500_spd_219.txt.gz
Wind_Speed
9 13 13 13 13 12 13 13 14 15 15 15 15 15 16 16 11 8 7 7 7 7 8 7 7 6 6 6 7 7 7 7 8 9 10 11 11 11 11 12 13 14 15
9 15 16 16 17 16 15 16 17 18 18 18 18 18 17 11 12 10 9 9 9 8 8 8 8 8 8 9 10 9 10 10 10 12 13 12 14 15 14 15 15 17 17
9 10 10 11 11 11 11 11 11 12 12 14 13 12 12 12 12 13 12 11 10 10 10 10 10 11 12 13 13 12 12 12 12 13 15 15 15 17 17 18 19 20 20
13 11 12 11 12 13 12 13 13 14 13 12 14 12 13 14 13 14 14 13 14 14 13 14 15 15 15 15 15 14 15 15 14 14 15 18 19 19 19 20 22 23 24
15 17 16 15 16 16 16 17 18 17 17 16 16 17 16 16 16 15 16 15 15 16 16 17 17 18 18 18 18 17 18 18 19 20 19 19 20 20 21 22 23 23 25
15 19 19 18 19 18 19 20 20 20 19 20 19 19 20 19 19 18 18 18 19 20 20 20 20 20 21 21 21 21 21 22 21 24 25 24 23 23 23 25 25 25 27
15 17 20 20 21 22 22 22 22 23 23 23 23 23 23 23 24 23 22 22 24 23 23 23 23 23 23 24 24 24 24 25 24 25 27 26 25 24 24 26 27 28 29
21 21 22 23 23 24 24 24 25 25 26 26 27 28 27 27 28 28 26 26 27 27 26 25 25 24 25 26 26 27 27 26 26 25 29 27 25 26 27 27 28 28 27
23 24 25 26 28 28 28 27 27 27 27 27 28 29 30 30 30 30 30 29 28 28 30 29 28 27 27 27 28 28 29 28 27 25 29 28 27 26 27 27 27 25 25
26 29 27 27 27 30 32 32 32 32 32 32 32 32 32 31 32 33 33 33 31 31 32 32 32 31 30 29 29 30 31 32 30 26 28 28 27 26 25 28 27 26 24
26 29 33 33 31 32 33 35 37 37 37 37 37 37 36 35 35 35 34 34 35 34 34 34 34 35 34 32 32 33 33 34 32 30 29 29 26 26 28 27 26 25 24
31 32 32 35 37 38 36 37 38 41 42 43 44 43 42 41 39 39 40 39 39 41 40 39 37 39 36 36 36 34 35 34 33 32 31 30 29 29 29 28 27 25 24
34 36 36 37 40 42 43 44 45 45 45 45 46 48 48 48 46 44 44 42 43 44 45 45 45 40 38 34 44 37 34 34 34 30 31 31 31 31 29 29 28 23 20
36 39 42 43 45 48 48 48 49 50 52 52 53 52 51 49 50 49 49 47 47 48 48 47 44 45 36 35 33 29 31 33 33 31 30 32 32 32 30 30 29 28 26
47 49 51 53 54 58 60 61 59 58 57 58 59 60 59 57 54 52 52 52 50 49 49 48 48 43 37 35 32 29 29 32 34 33 33 33 34 35 33 31 31 31 32
57 59 61 63 64 67 70 71 72 71 72 71 67 65 66 65 63 60 57 56 56 55 53 51 49 47 43 42 44 37 31 32 35 37 36 34 35 35 35 33 34 34 35
62 66 69 70 72 74 76 79 80 81 83 82 80 79 77 71 70 70 68 64 62 62 60 58 55 51 48 44 43 41 39 35 36 36 37 35 36 37 36 35 35 35 36
72 73 75 76 78 80 81 83 85 87 89 89 86 85 84 82 80 75 74 73 71 68 67 65 64 58 53 50 48 46 43 42 40 42 36 35 35 37 37 35 37 37 37
85 83 76 77 80 83 84 84 87 88 90 92 91 89 84 84 81 80 79 78 78 76 73 71 68 67 61 58 54 52 49 46 43 32 40 37 39 38 37 37 39 36 37
93 92 88 86 86 86 89 89 90 92 92 90 88 85 84 84 83 81 81 82 83 83 81 78 75 71 68 64 60 56 52 49 49 49 46 41 39 38 37 36 37 36 35
90 93 94 90 90 90 87 89 91 90 85 82 82 78 79 80 83 85 85 84 86 87 87 84 83 80 76 71 68 63 59 55 53 53 50 44 41 41 40 37 36 33 36
88 87 85 85 85 90 89 84 78 75 74 73 72 73 74 74 77 82 88 88 88 89 89 87 86 85 82 76 72 68 65 59 58 55 51 48 45 46 44 41 41 41 35
84 81 83 86 85 83 81 73 66 61 62 62 62 62 63 64 65 72 79 85 88 89 89 85 82 85 83 80 77 73 58 64 61 58 54 47 43 39 42 47 46 45 42
81 82 83 79 78 71 65 60 56 54 50 51 54 54 55 58 61 64 66 72 78 81 82 87 83 83 84 81 79 75 69 54 57 60 58 47 54 60 49 47 53 48 47
80 75 70 63 59 57 53 45 46 47 45 43 44 47 48 52 55 59 63 61 64 70 73 77 81 79 81 81 78 74 71 67 63 56 54 55 50 48 52 53 52 54 52
75 62 52 48 43 42 45 46 45 42 39 34 35 38 37 38 44 50 57 59 59 60 63 67 70 75 77 78 77 74 67 65 65 60 57 53 48 42 55 52 41 50 53

GFSSE_500_spd_222.txt.gz
Wind_Speed
9 11 15 16 16 15 15 15 15 16 16 16 16 16 17 17 17 13 11 8 7 7 7 8 7 6 6 6 7 7 7 8 9 10 10 11 12 13 13 13 14 15 15
9 11 15 16 15 15 15 16 16 17 19 20 19 19 19 17 15 13 12 11 9 9 9 9 9 7 7 7 8 9 10 10 11 12 11 13 14 15 17 17 17 18 18
8 10 12 12 13 11 11 12 12 11 12 12 11 11 12 12 12 13 13 13 11 11 11 11 12 12 12 12 12 12 12 13 14 15 15 15 17 18 19 20 20 21 21
14 13 14 13 13 13 13 14 15 14 14 15 13 13 13 13 14 14 15 14 14 14 14 15 16 17 17 16 16 15 15 15 16 16 18 18 19 20 21 22 22 23 22
17 16 16 16 16 17 17 18 18 18 18 19 18 18 17 17 17 18 18 18 18 18 19 20 20 19 19 20 19 19 19 18 18 18 19 20 20 22 23 24 23 23 25
20 22 17 17 17 17 19 19 20 21 21 21 22 22 22 22 21 22 22 23 22 23 23 24 23 23 23 22 22 22 22 22 24 22 21 22 22 22 22 23 23 23 23
15 17 20 20 20 20 21 23 23 24 24 24 24 24 25 25 24 25 26 26 27 27 27 27 26 26 25 25 25 25 25 25 26 26 25 25 25 24 23 23 24 25 25
17 19 19 20 21 21 22 23 24 25 25 26 27 27 27 27 27 27 28 28 28 30 30 30 29 28 28 28 28 28 28 28 27 28 28 27 27 26 25 25 25 24 25
17 19 21 22 23 24 24 26 27 26 27 27 29 29 28 28 28 29 29 30 31 32 33 32 32 30 30 30 31 31 31 30 28 30 30 30 29 27 26 26 26 24 24
22 23 25 24 24 27 27 28 29 31 32 32 33 32 32 32 33 33 33 33 33 34 35 35 34 34 32 31 32 33 33 33 30 31 31 31 31 30 28 27 25 26 25
27 27 27 28 28 28 29 30 32 34 34 35 35 36 36 37 37 37 37 38 38 38 36 36 35 35 33 33 34 35 35 36 34 33 32 32 32 31 29 28 28 27 26
28 30 32 35 35 35 36 37 38 39 40 40 40 40 40 40 40 40 41 42 43 43 43 41 40 41 38 36 38 39 37 38 38 36 34 33 32 30 30 29 29 29 28
35 37 39 41 44 46 47 46 47 48 49 50 50 50 48 46 46 46 46 45 47 48 45 46 45 43 43 41 44 36 36 38 43 38 34 32 31 30 30 30 30 29 29
39 41 44 48 50 53 54 56 57 58 60 61 61 61 61 58 55 53 51 51 51 51 49 47 49 48 47 43 41 37 38 35 35 31 32 30 30 30 31 30 30 31 30
42 42 46 49 51 53 56 58 61 62 63 65 67 68 69 69 68 65 60 57 58 57 54 53 52 50 48 45 43 41 37 33 29 31 33 29 30 32 33 33 32 32 33
51 55 57 57 56 57 61 63 66 67 67 67 69 72 73 74 73 73 73 70 65 62 62 61 58 55 51 49 44 43 42 43 45 40 39 35 32 36 34 35 35 35 35
64 67 68 70 72 73 74 74 71 72 73 74 77 79 83 81 80 78 77 76 76 71 68 67 67 63 59 55 46 47 46 43 44 35 33 32 32 34 35 35 37 37 37
67 69 72 74 79 82 84 85 84 82 83 83 84 86 89 89 90 88 84 81 79 80 75 72 71 70 67 63 58 50 51 48 48 50 39 37 37 37 38 36 36 36 37
76 77 77 79 81 82 84 85 87 91 92 92 92 93 97 96 94 93 90 88 85 83 81 79 76 76 72 69 67 57 52 53 53 48 44 42 42 45 36 34 37 35 35
85 86 87 90 93 92 89 88 89 94 96 98 97 96 98 98 98 96 95 95 93 91 88 86 83 79 78 74 72 67 63 56 52 52 48 45 47 41 30 35 39 36 34
90 91 93 95 94 94 95 95 94 95 92 89 89 92 94 95 95 97 95 94 96 96 91 87 86 84 81 80 78 73 69 64 60 57 53 51 49 46 47 42 41 37 37
92 93 94 91 88 85 86 89 92 89 83 75 69 68 71 74 74 78 79 82 87 90 92 89 89 89 86 83 82 79 76 72 68 62 56 53 55 51 50 46 42 42 39
90 90 89 86 84 84 83 79 76 72 66 61 57 57 58 58 61 66 68 71 76 83 87 88 90 91 89 86 85 82 79 77 70 68 63 60 58 55 49 46 45 41 52
86 85 81 80 80 77 70 61 59 57 56 54 53 52 50 52 54 58 60 62 66 71 78 84 90 92 91 88 87 84 78 75 65 67 63 63 61 57 54 50 43 45 39
81 79 75 72 62 54 53 52 51 51 50 48 48 45 43 45 48 49 52 55 58 62 69 73 79 86 89 88 85 84 78 73 66 61 56 61 63 62 56 53 37 56 47
69 64 52 40 38 42 45 46 46 49 52 50 45 41 41 40 41 43 43 45 48 53 59 63 68 72 77 82 83 83 81 76 71 66 62 56 52 57 60 58 54 59 58

GFSSE_500_spd_225.txt.gz
Wind_Speed
11 11 12 16 15 17 18 18 18 17 18 17 18 18 18 19 18 17 15 12 10 9 8 8 8 6 5 5 5 6 7 8 8 9 9 9 10 11 12 13 14 15 16
11 10 11 15 17 16 15 16 15 15 15 15 17 19 19 19 19 17 14 12 12 12 11 10 10 9 8 7 8 8 10 11 10 10 12 12 12 13 14 15 16 17 18
13 14 14 15 15 15 14 15 14 15 15 14 13 14 14 14 14 15 15 14 14 14 13 13 14 13 12 12 13 13 14 14 14 14 14 15 16 16 17 18 20 21 21
16 17 17 18 17 16 17 18 17 16 17 16 16 16 17 16 16 18 18 16 17 17 17 17 17 17 17 17 17 17 17 17 17 16 17 17 17 18 20 20 21 22 22
19 18 18 18 19 19 20 20 21 20 20 20 20 19 20 21 20 21 22 20 20 21 22 21 21 22 21 22 21 21 21 20 20 20 20 20 21 21 21 22 23 23 23
19 17 16 16 18 20 21 22 21 22 22 23 24 24 24 25 25 25 24 25 25 26 26 26 26 27 26 26 25 24 24 24 24 24 24 24 24 24 25 24 24 23 23
20 21 20 20 20 20 21 22 22 24 24 26 26 26 27 27 28 29 29 29 30 30 29 30 30 30 29 29 28 27 26 27 27 26 27 27 27 28 27 26 25 24 24
19 20 20 22 22 23 23 23 23 23 25 26 27 28 28 28 29 30 31 31 32 32 32 32 31 32 32 32 31 30 29 28 30 30 30 30 30 30 29 29 27 25 25
18 19 21 22 24 26 26 27 27 27 29 28 29 29 29 30 31 31 30 31 32 32 33 33 33 33 33 33 33 33 32 30 31 32 33 33 32 32 31 30 30 28 26
21 21 22 23 24 26 27 29 30 32 33 33 33 33 33 34 34 35 34 34 34 34 35 34 35 35 35 36 36 36 35 33 32 32 34 34 34 33 33 32 31 30 27
23 24 25 26 29 31 30 32 32 33 35 36 36 36 38 38 39 38 38 38 38 37 38 38 38 37 37 38 39 39 38 35 33 33 35 35 36 36 34 34 32 30 28
28 30 32 34 36 38 39 41 43 43 43 44 44 44 44 44 44 44 44 44 43 42 43 42 42 41 42 43 41 39 39 39 37 35 37 38 37 38 36 34 32 31 29
35 37 38 40 41 41 42 44 45 46 47 48 50 51 52 52 52 52 52 52 51 49 48 48 47 46 46 45 45 44 44 45 40 37 36 39 38 41 39 35 33 30 29
35 37 40 44 46 49 51 54 53 53 55 55 56 58 56 56 57 58 57 56 57 57 57 55 54 52 49 47 48 48 49 43 37 32 34 36 35 39 38 35 32 29 28
46 49 51 52 54 56 59 62 64 62 60 62 64 64 64 64 63 64 63 62 60 60 62 62 61 59 57 53 52 50 49 46 42 40 35 33 29 33 36 36 35 31 31
55 56 55 57 58 61 64 66 67 69 70 69 72 71 72 72 73 70 69 71 71 69 66 64 66 66 64 63 57 56 52 49 45 42 37 33 31 36 39 38 36 34 33
64 66 65 65 66 68 68 70 72 75 77 79 81 83 81 80 82 82 80 78 78 78 75 72 70 68 71 70 66 61 58 55 50 46 45 44 46 46 46 46 40 37 35
71 71 72 70 72 75 77 78 80 81 82 84 87 88 89 90 90 91 91 88 85 85 85 84 80 80 75 76 73 68 65 60 58 52 49 46 48 40 38 35 33 35 36
73 75 77 79 82 87 89 88 87 88 89 90 91 93 95 96 98 99 100 97 96 96 96 94 89 88 81 80 79 75 71 67 63 59 56 46 47 44 45 38 38 37 40
86 88 89 90 92 95 95 93 91 92 96 96 98 99 101 101 103 102 106 106 105 104 103 102 101 92 89 84 85 80 77 72 69 65 61 60 58 49 46 43 41 39 33
86 90 94 93 92 93 91 91 97 99 98 98 97 100 100 100 104 104 105 107 106 107 105 104 99 98 94 92 89 85 81 79 73 71 68 64 61 56 52 46 46 40 45
87 86 84 82 85 89 90 91 91 91 90 86 82 77 74 73 73 74 80 82 86 93 101 101 101 99 98 97 94 90 84 82 78 75 74 70 67 62 56 49 48 47 49
80 80 79 87 92 89 86 83 81 77 70 64 60 59 56 57 58 57 59 59 64 72 77 82 89 94 96 97 96 95 90 87 83 80 78 76 71 66 61 56 51 47 51
80 85 92 89 84 77 71 63 56 51 49 47 48 49 52 53 52 50 51 55 55 57 60 65 71 77 82 86 91 93 94 89 87 85 82 79 76 70 65 62 57 52 51
92 90 83 69 47 43 46 46 43 41 41 39 43 48 52 53 53 49 48 48 49 49 52 55 56 64 69 76 85 89 91 90 86 82 66 81 77 71 65 64 62 60 53
76 71 58 45 35 39 42 40 39 41 42 43 45 49 51 53 51 47 43 44 42 38 40 43 47 51 58 66 73 77 85 90 80 74 68 64 70 77 71 68 67 62 57

GFSSE_500_spd_228.txt.gz
Wind_Speed
13 17 17 16 16 16 17 18 18 19 19 19 19 19 19 19 17 17 17 15 14 11 11 11 11 10 8 7 7 6 6 6 6 7 7 8 8 8 9 10 11 12 13
13 14 16 18 18 17 19 22 22 20 19 19 19 20 21 21 20 18 17 17 16 15 14 13 12 11 11 10 10 10 9 8 9 9 9 10 10 11 11 12 13 14 15
16 18 18 18 20 21 22 20 20 19 19 18 17 17 17 17 17 17 17 17 17 17 16 15 14 14 13 13 13 13 13 12 12 12 12 13 13 14 15 14 15 17 18
18 19 20 21 21 21 22 23 23 22 21 21 20 19 20 19 18 19 19 19 18 19 18 18 18 17 16 17 16 17 17 16 16 15 15 15 16 16 17 17 18 19 20
21 21 21 21 21 22 23 24 25 25 24 24 23 23 23 23 23 23 23 23 22 22 22 22 21 21 20 20 20 20 21 20 20 19 19 19 19 20 20 20 20 21 22
22 23 22 22 22 22 22 24 25 26 26 26 26 26 27 27 27 27 27 27 26 26 26 26 26 26 26 25 25 25 25 25 25 24 23 23 23 23 23 23 23 23 23
25 24 25 24 24 24 25 26 27 27 27 26 27 29 29 28 29 29 31 30 31 31 30 30 31 30 31 31 29 29 29 29 29 28 28 27 28 27 27 26 26 25 25
25 26 27 26 25 25 26 25 28 28 27 28 29 29 29 29 30 30 31 32 34 34 34 34 34 33 34 34 33 32 32 33 33 32 32 32 31 31 31 30 28 28 27
24 26 28 28 28 29 29 30 29 30 29 31 31 32 33 33 33 32 34 34 34 32 36 35 34 34 36 36 36 35 34 34 35 36 35 35 34 33 32 31 30 29 28
27 25 26 26 27 28 28 30 31 32 31 31 32 31 33 34 34 35 36 37 37 38 37 34 37 35 35 36 38 37 38 38 38 38 38 38 37 35 34 32 31 31 30
29 29 30 30 32 33 35 35 36 37 37 39 40 40 39 39 38 38 38 38 38 40 40 41 40 38 38 38 37 37 40 42 41 40 40 39 37 36 35 34 33 33 32
36 37 37 38 39 40 41 42 42 44 44 45 45 47 47 47 47 47 46 46 45 44 43 42 42 43 42 42 43 44 46 42 36 41 42 39 38 38 37 36 35 34 34
42 45 46 44 44 43 44 46 47 49 51 51 51 51 52 52 51 50 50 51 52 52 52 51 49 48 47 45 45 45 46 47 43 38 37 41 43 43 39 37 35 35 35
49 49 49 52 54 55 56 57 57 57 56 57 59 60 58 58 58 58 56 55 55 55 56 55 55 54 53 51 49 49 48 47 47 45 43 40 35 41 37 34 37 39 34
53 56 59 60 61 62 62 62 62 63 64 64 64 64 65 64 64 64 63 62 61 60 61 60 59 58 56 57 57 55 53 50 49 48 38 45 40 34 35 36 33 34 31
60 62 64 66 68 70 72 72 70 69 69 69 69 70 71 71 71 71 71 70 69 67 65 65 65 65 63 62 59 59 58 56 54 52 49 48 42 37 36 34 34 34 33
71 74 76 77 78 77 76 75 76 78 79 79 79 78 79 80 81 81 80 78 76 75 75 73 72 70 69 69 65 63 61 59 59 59 55 51 48 42 38 37 36 36 38
78 77 79 81 81 79 81 82 82 84 85 87 89 88 86 86 89 91 90 88 86 84 81 82 80 78 75 74 72 69 67 65 62 61 63 57 51 49 45 43 44 42 43
79 81 83 83 84 86 86 87 88 90 91 94 96 99 95 94 94 95 97 96 95 93 89 87 86 84 82 80 81 78 74 73 70 69 62 65 57 55 51 47 44 48 42
84 86 87 89 90 91 91 92 91 91 92 92 97 99 101 101 101 101 100 101 101 100 94 94 93 92 91 90 88 86 84 81 78 74 70 68 67 60 56 52 52 42 49
91 93 92 90 88 89 90 85 82 87 90 89 95 96 97 99 101 103 102 102 103 105 102 102 104 103 100 100 99 94 91 89 86 81 77 74 71 67 61 54 59 39 42
91 89 89 88 87 88 87 88 91 94 96 97 96 93 86 80 77 80 82 83 92 97 100 103 109 110 108 109 106 104 100 94 95 89 85 79 77 73 68 64 63 61 53
82 81 80 83 87 90 91 92 92 91 83 80 73 67 57 52 51 53 58 61 66 69 78 85 90 102 111 110 108 108 104 101 97 94 88 84 83 79 70 71 67 62 58
80 78 80 81 82 80 77 75 61 45 47 47 46 46 45 43 42 43 45 49 53 51 55 61 65 68 78 85 84 93 101 102 97 94 93 87 87 84 76 69 74 69 64
62 60 61 60 56 52 47 38 39 44 44 40 38 40 40 40 42 42 46 50 49 45 47 51 53 58 60 63 67 74 83 92 98 94 91 89 90 87 82 78 71 71 70
43 40 37 35 31 29 31 33 40 45 42 40 40 41 41 41 42 45 50 53 50 42 41 42 40 42 46 50 51 56 63 76 86 90 92 91 83 89 82 80 76 77 71

GFSSE_500_spd_231.txt.gz
Wind_Speed
15 17 19 21 21 20 20 19 21 20 21 23 23 23 22 21 22 21 19 19 18 17 15 14 15 16 15 14 13 13 14 13 12 11 11 11 11 10 10 10 10 10 10
17 18 19 19 20 21 23 23 21 22 25 23 22 23 24 25 24 25 23 21 20 19 18 16 17 17 16 16 14 15 14 14 12 12 12 12 12 11 11 11 11 11 11
18 20 20 21 22 22 22 22 27 24 25 25 23 22 21 21 21 23 23 22 21 21 20 19 19 18 17 17 17 16 15 15 14 14 14 14 13 13 13 14 14 14 14
22 23 22 22 23 24 25 25 25 26 28 26 23 25 24 23 23 23 22 21 21 22 21 20 20 19 19 18 19 19 18 17 17 17 17 16 15 16 16 16 16 17 17
25 23 24 26 25 24 25 27 27 28 27 26 27 27 27 27 27 27 26 25 24 23 23 23 22 21 21 21 21 21 21 21 21 19 20 19 19 20 20 20 20 20 19
29 29 27 28 28 29 29 29 27 28 28 28 29 29 29 34 31 30 30 30 30 29 27 27 26 26 25 24 24 25 26 25 25 25 24 24 24 24 23 23 23 22 22
31 31 30 30 30 30 30 32 33 31 30 29 30 30 32 32 32 33 32 32 34 33 33 31 31 31 30 29 29 29 30 30 29 29 29 30 29 28 27 27 26 25 24
32 33 33 32 33 33 32 33 32 34 33 33 33 32 31 32 32 33 34 33 30 33 36 34 36 35 35 34 34 34 33 34 34 34 34 34 33 33 32 31 29 28 27
33 33 35 35 34 34 33 35 35 35 35 34 35 36 36 36 35 36 35 35 36 39 34 34 40 38 39 38 38 36 36 37 38 38 37 36 36 37 36 35 34 33 30
35 35 34 34 35 35 35 36 37 37 37 36 37 37 37 37 38 37 37 38 40 40 38 36 38 37 41 39 40 38 37 37 40 40 40 39 39 40 41 39 38 35 33
38 38 39 40 41 42 42 43 43 43 44 44 45 45 45 43 43 43 42 42 42 41 41 40 40 39 40 40 42 42 39 33 40 44 44 43 42 43 43 41 39 37 35
46 48 50 50 50 51 52 52 52 52 52 52 52 52 52 52 53 52 51 50 50 49 47 45 44 43 42 41 42 42 44 47 45 37 32 43 46 42 41 40 40 38 37
54 55 57 59 60 60 60 60 60 60 58 58 58 58 58 59 57 57 56 56 57 56 55 54 52 50 49 47 45 45 43 43 45 46 46 36 31 33 42 46 42 38 38
61 62 63 65 66 67 67 67 68 67 66 67 67 66 66 64 64 65 63 62 62 61 60 60 59 58 56 55 54 52 50 48 45 39 39 43 43 37 34 30 42 38 39
66 67 68 69 69 71 70 71 74 73 73 74 74 74 72 73 73 72 72 71 68 66 68 66 64 61 61 60 60 57 56 54 52 49 45 48 36 38 40 38 32 34 34
70 73 74 77 79 79 80 81 81 83 82 79 79 78 77 77 77 76 76 75 76 74 71 71 70 67 65 65 65 63 60 59 57 54 50 49 43 46 42 33 32 34 33
72 73 77 78 83 81 81 82 82 82 83 79 82 82 81 81 83 84 83 80 79 82 83 79 76 74 72 70 68 68 66 64 62 59 55 51 51 48 47 34 38 36 36
78 75 77 80 84 86 89 90 89 86 87 91 89 88 89 89 89 88 90 89 87 85 84 84 83 82 79 76 74 72 70 67 68 68 61 57 51 50 49 46 44 42 38
79 80 81 86 87 84 83 87 89 89 90 92 93 94 97 95 93 91 94 95 95 94 93 93 92 89 87 85 81 79 78 75 72 69 68 64 62 55 53 48 47 48 44
80 79 80 83 85 87 91 96 93 92 92 92 93 93 96 98 98 99 99 100 99 100 99 97 99 100 98 95 91 88 85 82 78 74 72 68 66 63 59 56 50 51 51
86 92 92 90 90 90 93 97 97 97 95 90 88 88 92 94 96 97 98 99 102 104 105 102 101 101 99 98 97 96 92 88 85 83 79 75 72 69 66 61 58 52 55
84 82 77 74 73 75 77 79 80 81 83 85 86 88 88 88 88 90 90 92 95 99 102 104 108 108 107 106 104 102 98 95 94 88 85 82 78 75 71 68 63 59 60
53 52 53 54 51 50 54 54 55 57 59 59 60 61 58 55 57 57 60 64 69 75 84 91 96 104 109 107 110 109 105 100 97 96 93 89 86 83 77 74 69 65 62
50 51 51 49 47 46 45 45 46 45 42 37 39 40 42 47 49 48 48 50 52 54 56 63 72 80 90 102 103 109 110 110 106 100 98 95 93 89 87 79 75 72 67
53 53 52 51 50 48 46 45 45 43 42 41 38 41 42 42 42 42 43 44 45 48 49 51 52 54 59 71 75 81 96 109 110 107 103 99 98 95 89 85 80 77 74
51 50 47 45 42 44 45 42 44 45 42 40 38 38 37 37 37 39 42 44 44 46 48 50 48 46 49 52 53 58 66 77 88 103 109 100 102 101 94 89 86 79 77